Watts Bar Observed Data For Previous 48 Hours

Caption
Day and Hour Reservoir Elevation (behind dam)* Tailwater Elevation (below dam)* Average Hourly Discharge*
11/11/2018 2 AM EST 739.56 682.20 44,699
11/11/2018 3 AM EST 739.54 682.20 44,697
11/11/2018 4 AM EST 739.53 682.19 44,692
11/11/2018 5 AM EST 739.49 682.18 44,673
11/11/2018 6 AM EST 739.44 682.16 44,617
11/11/2018 7 AM EST 739.42 682.18 44,622
11/11/2018 8 AM EST 739.41 682.20 44,640
11/11/2018 9 AM EST 739.40 682.20 44,674
11/11/2018 10 AM EST 739.41 682.17 44,661
11/11/2018 11 AM EST 739.43 682.16 44,642
11/11/2018 12 PM EST 739.44 682.15 44,705
11/11/2018 1 PM EST 739.43 682.17 44,748
11/11/2018 2 PM EST 739.43 682.18 44,734
11/11/2018 3 PM EST 739.42 682.18 44,718
11/11/2018 4 PM EST 739.39 682.17 44,739
11/11/2018 5 PM EST 739.32 682.16 44,732
11/11/2018 6 PM EST 739.25 682.18 44,688
11/11/2018 7 PM EST 739.23 682.17 44,633
11/11/2018 8 PM EST 739.24 682.14 44,677
11/11/2018 9 PM EST 739.23 682.15 44,665
11/11/2018 10 PM EST 739.20 682.18 44,681
11/11/2018 11 PM EST 739.21 682.16 44,692
11/12/2018 12 AM EST 739.20 682.15 44,653
11/12/2018 1 AM EST 739.19 682.12 44,593
11/12/2018 2 AM EST 739.12 682.13 44,648
11/12/2018 3 AM EST 739.07 682.14 44,634
11/12/2018 4 AM EST 739.04 682.13 44,616
11/12/2018 5 AM EST 739.03 682.13 44,617
11/12/2018 6 AM EST 739.03 682.12 44,598
11/12/2018 7 AM EST 739.00 682.12 44,587
11/12/2018 8 AM EST 738.97 682.12 44,574
11/12/2018 9 AM EST 739.00 682.13 44,574
11/12/2018 10 AM EST 739.01 682.13 44,570
11/12/2018 11 AM EST 739.00 682.14 44,585
11/12/2018 12 PM EST 739.01 682.15 44,566
11/12/2018 1 PM EST 739.01 682.16 44,647
11/12/2018 2 PM EST 739.01 682.16 44,664
11/12/2018 3 PM EST 739.01 682.19 44,646
11/12/2018 4 PM EST 739.01 682.18 44,635
11/12/2018 5 PM EST 739.01 682.22 44,644
11/12/2018 6 PM EST 739.02 682.24 44,685
11/12/2018 7 PM EST 739.01 682.27 44,697
11/12/2018 8 PM EST 739.01 682.29 44,697
11/12/2018 9 PM EST 738.99 682.30 44,694
11/12/2018 10 PM EST 739.00 682.35 44,700
11/12/2018 11 PM EST 739.03 682.35 44,695
11/13/2018 12 AM EST 739.04 682.38 44,723
11/13/2018 1 AM EST 739.05 682.43 44,718
11/13/2018 2 AM EST 739.03 682.45 44,714
11/13/2018 3 AM EST 739.01 682.44 44,709
11/13/2018 4 AM EST 738.98 682.49 44,733
11/13/2018 5 AM EST 738.96 682.49 44,774
11/13/2018 6 AM EST 738.95 682.52 44,755
11/13/2018 7 AM EST 738.96 682.59 44,890
11/13/2018 8 AM EST 738.95 682.58 44,953
11/13/2018 9 AM EST 738.93 682.61 44,939
11/13/2018 10 AM EST 738.91 682.63 44,981

Elevations are in feet above sea level. Discharges are in cubic feet per second and are reported at the end of the hour.